Terug naar catalogus

STARLINK-34614

ActiefCommunicatieVLEO
NORAD 65030·PAYLOAD·🇺🇸 United States

Gelanceerd Jul 30, 2025 vanaf Cape Canaveral Space Force Station

Loading…

Volgende Passages (komende 24 uur)

TLE

VersSource: CelesTrak SupGP

Epoch: Sep 15, 2026, 03:16 UTC

1 65030C 25161R   26258.13659722  .00043480  00000+0  12849-2 0  2589
2 65030  53.1578 132.7383 0001196  80.7152  13.5862 15.34363220    17

Volg STARLINK-34614 in realtime met AllMySat

Download on the App Store